{"data":{"norad_id":66461,"epoch":"2026-09-20T09:06:17.411616Z","epoch_age_seconds":100025,"freshness":"FRESH","line1":"1 66461U 25262F   26263.37936819  .00007665  00000+0  28771-3 0  9996","line2":"2 66461  43.0005 276.4986 0001514 265.1076  94.9603 15.27587776 48689","mean_motion":15.27587776,"eccentricity":0.0001514,"inclination_deg":43.0005,"raan_deg":276.4986,"arg_perigee_deg":265.1076,"mean_anomaly_deg":94.9603,"bstar":0.00028771,"rev_number":4868,"period_min":94.266268860219,"perigee_km":481.98703194729,"apogee_km":484.06459204676,"semimajor_km":6861.162811997,"source":"CELESTRAK","updated_at":"2026-09-21T09:00:35.913313Z"}}